Calicut International Airport

Jump to: basic info | weather | frequencies | runways | comments

Related pages: nearby airports | nearby navaids | notams | map

Basic information (top)

Codes: CCJ VOCL
Location: lon 11.136800, lat 75.955299, elev 342 ft / 104 m msl
Status: large_airport
Scheduled airline service: yes
Links: Wikipedia Mobile

Weather (top)

Current conditions (rec'd 2014/10/31 14:30Z):

VOCL 311430Z 00000KT 6000 FEW015 SCT018 FEW025CB 28/24 Q1011 NOSIG

Airport forecast (rec'd 2014/10/30 00:00Z):

TAF VOCL 302100Z 3100/0106 00000KT 4000 HZ SCT015 SCT020 BKN090 
      TEMPO 3100/3103 2000 TSRA/RA SCT008 SCT012 FEW025CB OVC090 
      BECMG 3103/3104 12005KT 5000 HZ 
      BECMG 3105/3106 27010KT 6000 
      TEMPO 3109/3112 2000 TSRA/RA SCT008 SCT012 FEW025CB OVC090 
      BECMG 3117/3118 00000KT 4000 HZ 
      TEMPO 0100/0103 2000 TSRA/RA SCT008 SCT012 FEW025CB OVC090 
      BECMG 0103/0104 12005KT 5000 HZ 
      BECMG 0105/0106 27010KT 6000

Frequencies (top)

Verify before use: may be inaccurate or out of date.

ATIS: 127 MHz (ATIS)
TWR: 122.95 MHz (TWR)

Runways (top)

10/28: 9,383 x 150 ft (2,860 x 46 m) — paved — lighted

Latest comments (top)

Moideenkutty oorakam ( CCJ ): Calicut int airport ( Terminal,1 - ... [read]

Info: Calicut International Airport ... [read]

More... (top)

See also NOTAMs and nearby airports and navaids, or visit the Calicut International Airport page at the main OurAirports website..